Flag for Germany Weather past 2 weeks in Weil am Rhein, Baden-Württemberg, Germany

Now
62 °F

Scattered clouds.


Feels Like: 62 °F
Forecast: 44 / 68 °F
Wind: 3 mph from Northeast

Location: Bale-Mulhouse


UV Index: 3 (Moderate)

Visibility: 9 mi


Pressure: 30.07 "Hg

Humidity: 76%

Dew point: 54 °F

Location of Weil am RheinLocation

Historic Weather in Weil am Rhein

°F

Weil am Rhein temperature yesterday

Maximum temperature yesterday: 71 °F (at 4:00 PM)
Minimum temperature yesterday: 47 °F (at 3:00 AM)
Average temperature yesterday: 58 °F

Past Weeks' High & Low Weather Summary

 TemperatureHumidityPressure
High73 °F (Apr 11, 5:00 PM)98% (Apr 19, 6:00 AM)30.37 "Hg (Apr 19, 6:00 AM)
Low27 °F (Apr 16, 7:00 AM)24% (Apr 17, 6:00 PM)29.62 "Hg (Apr 20, 5:00 PM)
Average52 °F64%30.03 "Hg
* Reported Apr 9 10:00 AM — Apr 24 10:00 AM, Weil am Rhein, Weather by CustomWeather, © 2014

Note: Actual official high and low records may vary slightly from our data, if they occured in-between our weather recording intervals... More about our weather records

Advertising

Historic Weather Conditions — Data for Previous 24 hours

 ConditionsComfort  
Time TempWeatherWind HumidityBarometerVisibility
10:00 AM
Apr 24
59 °FScattered clouds.2 mph80%30.09 "Hg7 mi
9:00 AM55 °FLow clouds.1 mph93%30.09 "Hg6 mi
8:00 AM52 °FFog.3 mph97%30.09 "Hg5 mi
7:00 AM51 °FFog.1 mph97%30.09 "Hg5 mi
6:00 AM51 °FOvercast.1 mph96%30.08 "Hg7 mi
5:00 AM51 °FOvercast.2 mph96%30.09 "Hg6 mi
4:00 AM51 °FCool.5 mph94%30.10 "Hg7 mi
3:00 AM53 °FOvercast.3 mph94%30.10 "Hg6 mi
2:00 AM54 °FOvercast.3 mph93%30.11 "Hg12 mi
1:00 AM54 °FOvercast.2 mph93%30.11 "Hg10 mi
12:00 AM55 °FOvercast.3 mph90%30.09 "Hg9 mi
11:00 PM
Apr 23
55 °FLight rain. Passing clouds.3 mph87%30.09 "Hg9 mi
10:00 PM57 °FThundershowers. Passing clouds.8 mph76%30.07 "Hg12 mi
9:00 PM61 °FPassing clouds.12 mph60%30.05 "Hg25 mi
8:00 PM65 °FScattered clouds.12 mph50%30.01 "Hg25 mi
7:00 PM68 °FMild.13 mph43%29.99 "Hg34 mi
6:00 PM69 °FScattered clouds.13 mph45%29.98 "Hg16 mi
5:00 PM71 °FScattered clouds.14 mph42%29.99 "Hg16 mi
4:00 PM71 °FScattered clouds.6 mph39%30.00 "Hg16 mi
3:00 PM70 °FScattered clouds.7 mph43%30.02 "Hg16 mi
2:00 PM69 °FScattered clouds.7 mph51%30.04 "Hg16 mi
1:00 PM67 °FScattered clouds.5 mph52%30.06 "Hg16 mi
12:00 PM64 °FScattered clouds.3 mph57%30.08 "Hg16 mi
11:00 AM61 °FOvercast.3 mph65%30.10 "Hg16 mi
Weather by CustomWeather, © 2014

See weather overview